Overview Statistics Trail Chart Weather Telemetry Raw packets
 

This is the latest recevied weather packets stored in our database for station/object SV9TNF-51. If no packets are shown the sender has not sent any weather packets the latest 10 day(s).

<< 92 93 94 95 96 97 98 >>
Time Temp. Humidity Pressure Rain* Wind** Luminosity Snow
1787977301 25.56° C 58% 1013.2 hPa 0 mm 1.34 m/s, 127° - -
1787977001 25.56° C 59% 1013.2 hPa 0 mm 0.89 m/s, 126° - -
1787976701 25.56° C 60% 1013.2 hPa 0 mm 0.89 m/s, 129° - -
1787976400 25.56° C 59% 1013.2 hPa 0 mm 0.89 m/s, 142° - -
1787976100 25.56° C 59% 1013.2 hPa 0 mm 1.34 m/s, 133° - -
1787975800 25.56° C 60% 1013.2 hPa 0 mm 0.45 m/s, 128° - -
1787975501 25.56° C 62% 1013.2 hPa 0 mm 0.89 m/s, 126° - -
1787975200 25.56° C 67% 1012.5 hPa 0 mm 0 m/s - -
1787974900 26.11° C 69% 1012.5 hPa 0 mm 0 m/s - -
1787974600 26.11° C 69% 1012.2 hPa 0 mm 0.45 m/s, 126° - -
1787974300 26.11° C 69% 1012.2 hPa 0 mm 2.68 m/s, 125° - -
1787974000 26.11° C 69% 1012.2 hPa 0 mm 0.89 m/s, 127° - -
1787973700 26.11° C 69% 1012.2 hPa 0 mm 0.45 m/s, 127° - -
1787973400 26.11° C 69% 1012.2 hPa 0 mm 0 m/s - -
1787973099 26.11° C 69% 1012.2 hPa 0 mm 0 m/s - -
1787972800 26.11° C 68% 1012.2 hPa 0 mm 0 m/s - -
1787972499 26.11° C 68% 1012.2 hPa 0 mm 0.45 m/s, 130° - -
1787972199 26.11° C 68% 1011.9 hPa 0 mm 1.34 m/s, 125° - -
1787971899 26.11° C 67% 1011.9 hPa 0 mm 1.34 m/s, 125° - -
1787971599 26.11° C 67% 1011.9 hPa 0 mm 1.79 m/s, 125° - -
1787971299 26.67° C 67% 1011.9 hPa 0 mm 1.34 m/s, 124° - -
1787970999 26.67° C 67% 1011.9 hPa 0 mm 2.68 m/s, 120° - -
1787970699 26.67° C 67% 1011.9 hPa 0 mm 0 m/s - -
1787970399 26.67° C 67% 1011.9 hPa 0 mm 0 m/s - -
1787970099 26.67° C 66% 1011.9 hPa 0 mm 0 m/s - -

* Rain latest hour (hover to see other rain measurements)
** Current wind speed in m/s (hover to see current wind gust speed)